DW9579 Weather Reports


Display with metric or nautical units.
time (UTC)temp
F
wind
direction
speed
MPH
gust
MPH
rain 1hr
in
rain 24hr
in
rain mn
in
humidity
%
barometer
mb
20260506114957 57 298 3.0 7.0 0.00 0.00 0.00 75 1019.0
20260506113934 57 302 4.0 8.0 0.00 0.00 0.00 75 1018.9
20260506112936 57 301 0.0 6.0 0.00 0.00 0.00 76 1018.8
20260506111935 57 303 2.0 6.0 0.00 0.00 0.00 76 1018.8
20260506110933 57 303 2.0 7.0 0.00 0.00 0.00 76 1018.7
20260506110002 57 302 1.0 7.0 0.00 0.00 0.00 75 1018.7
20260506104939 57 301 2.0 8.0 0.00 0.00 0.00 75 1018.7
20260506103941 57 295 2.0 6.0 0.00 0.00 0.00 75 1018.7
20260506102940 57 293 3.0 7.0 0.00 0.00 0.00 76 1018.5
20260506101938 57 294 2.0 8.0 0.00 0.00 0.00 76 1018.5
20260506100937 57 296 5.0 9.0 0.00 0.00 0.00 76 1018.4
20260506095930 57 306 4.0 7.0 0.00 0.01 0.00 76 1018.6
20260506094949 57 305 3.0 6.0 0.00 0.01 0.00 76 1018.6
20260506093948 57 304 1.0 5.0 0.00 0.01 0.00 76 1018.5
20260506092926 57 304 0.0 5.0 0.00 0.01 0.00 76 1018.5
20260506091931 57 304 1.0 4.0 0.00 0.01 0.00 76 1018.5
20260506090932 57 304 2.0 5.0 0.00 0.01 0.00 76 1018.4
20260506085948 57 303 1.0 4.0 0.00 0.05 0.00 76 1018.5
20260506085006 57 303 3.0 6.0 0.00 0.05 0.00 76 1018.5
20260506083945 57 303 1.0 6.0 0.00 0.05 0.00 76 1018.5
20260506083004 57 304 3.0 7.0 0.00 0.05 0.00 75 1018.7
20260506081947 57 292 3.0 6.0 0.00 0.05 0.00 75 1018.7
20260506080944 57 290 1.0 8.0 0.00 0.05 0.00 75 1018.6
20260506072955 57 284 4.0 6.0 0.00 0.10 0.05 76 1018.3
20260506071932 57 282 1.0 6.0 0.00 0.10 0.05 76 1018.3
20260506070933 57 282 4.0 9.0 0.00 0.10 0.05 76 1018.3
20260506061943 57 276 5.0 9.0 0.00 0.12 0.05 76 1017.8
20260506060944 57 277 6.0 9.0 0.00 0.12 0.05 76 1017.9
20260506050943 57 280 5.0 10.0 0.00 0.14 0.05 76 1017.4
20260506044931 58 265 6.0 10.0 0.00 0.15 0.05 76 1017.3
20260506043950 58 263 8.0 12.0 0.00 0.15 0.05 76 1017.2
20260506042934 58 258 8.0 11.0 0.00 0.15 0.05 76 1017.1
20260506041932 58 261 7.0 11.0 0.00 0.15 0.05 76 1017.1
20260506040953 57 282 7.0 10.0 0.00 0.15 0.05 76 1016.8
20260506035941 58 273 4.0 10.0 0.00 0.15 0.05 75 1016.7
20260506033945 58 268 7.0 13.0 0.00 0.15 0.05 75 1016.3
20260506032943 58 252 8.0 12.0 0.00 0.15 0.05 76 1016.2
20260506031944 58 257 8.0 12.0 0.00 0.15 0.05 76 1016.2
20260506031005 58 254 10.0 13.0 0.00 0.15 0.05 76 1015.9
20260506025934 58 256 9.0 13.0 0.00 0.15 0.05 76 1015.9
20260506024936 59 267 8.0 13.0 0.00 0.15 0.05 75 1015.9
20260506023953 59 267 8.0 15.0 0.00 0.15 0.05 75 1015.9
20260506022931 59 254 12.0 16.0 0.00 0.15 0.05 75 1015.7
20260506021931 59 258 11.0 17.0 0.00 0.15 0.05 75 1015.7
20260506020930 60 257 13.0 17.0 0.00 0.15 0.05 73 1015.6
20260506015943 60 259 11.0 17.0 0.00 0.15 0.05 74 1015.4
20260506014925 60 267 10.0 15.0 0.00 0.15 0.05 73 1015.4
20260506013946 61 264 10.0 14.0 0.00 0.15 0.05 72 1015.4
20260506012945 60 263 10.0 14.0 0.00 0.15 0.05 72 1015.5
20260506011929 60 277 9.0 14.0 0.00 0.15 0.05 72 1015.5
20260506010931 61 261 10.0 14.0 0.00 0.15 0.05 72 1015.4
20260506010005 61 266 10.0 13.0 0.00 0.15 0.05 73 1015.2
20260506004945 61 272 9.0 14.0 0.00 0.15 0.05 72 1015.2
20260506003943 60 265 8.0 14.0 0.00 0.15 0.05 74 1015.2
20260506002945 60 263 10.0 14.0 0.00 0.15 0.05 72 1015.1
20260506001944 60 264 10.0 14.0 0.00 0.15 0.05 73 1015.1
20260506000927 60 261 11.0 15.0 0.00 0.15 0.05 73 1015.1
20260505235940 60 282 11.0 15.0 0.00 0.15 0.05 73 1015.2
20260505234938 60 275 9.0 14.0 0.00 0.15 0.05 74 1015.2
20260505233943 61 255 10.0 14.0 0.00 0.15 0.05 73 1015.2
20260505232940 61 272 10.0 14.0 0.00 0.15 0.05 72 1015.2
20260505231942 61 271 10.0 16.0 0.00 0.15 0.05 72 1015.2
20260505230944 61 264 9.0 14.0 0.00 0.15 0.05 72 1015.2
20260505225940 61 273 9.0 13.0 0.00 0.15 0.05 72 1015.2
20260505224941 61 274 9.0 15.0 0.00 0.15 0.05 72 1015.2
20260505223941 61 276 10.0 13.0 0.00 0.15 0.05 73 1015.1
20260505222943 61 274 9.0 14.0 0.00 0.15 0.05 74 1015.2
20260505221946 61 274 8.0 16.0 0.00 0.15 0.05 74 1015.2
20260505221005 61 281 11.0 15.0 0.00 0.15 0.05 74 1015.2
20260505215933 60 254 12.0 15.0 0.00 0.15 0.05 75 1015.3
20260505214931 60 260 11.0 16.0 0.00 0.15 0.05 75 1015.3
20260505213930 60 267 9.0 14.0 0.00 0.15 0.05 74 1015.5
20260505212932 60 269 11.0 15.0 0.00 0.15 0.05 74 1015.5
20260505211931 60 264 10.0 14.0 0.00 0.15 0.05 73 1015.5
20260505210929 60 269 8.0 12.0 0.00 0.15 0.05 73 1015.5
20260505205944 60 271 7.0 11.0 0.00 0.15 0.05 73 1015.5
20260505204942 60 279 4.0 15.0 0.00 0.15 0.05 72 1015.5
20260505204004 60 280 6.0 11.0 0.00 0.15 0.05 74 1015.5
20260505202946 60 290 5.0 9.0 0.00 0.15 0.05 72 1015.6
20260505201943 60 280 5.0 10.0 0.00 0.15 0.05 73 1015.6
20260505201001 60 272 6.0 11.0 0.00 0.15 0.05 73 1015.7
20260505195951 60 268 7.0 10.0 0.00 0.15 0.05 73 1015.7
20260505194932 60 281 8.0 12.0 0.00 0.15 0.05 73 1015.7
20260505193935 60 267 7.0 11.0 0.00 0.15 0.05 74 1015.8
20260505192933 59 284 6.0 12.0 0.00 0.15 0.05 74 1015.8
20260505191931 59 279 8.0 12.0 0.00 0.15 0.05 74 1015.8
20260505190933 60 271 8.0 14.0 0.00 0.15 0.05 74 1015.5
20260505185946 60 266 10.0 14.0 0.00 0.15 0.05 74 1015.6
20260505184943 60 268 7.0 12.0 0.00 0.15 0.05 73 1015.6
20260505183942 60 279 7.0 9.0 0.00 0.15 0.05 74 1015.6
20260505182940 59 298 3.0 9.0 0.00 0.15 0.05 75 1015.7
20260505181943 58 288 5.0 8.0 0.00 0.15 0.05 75 1015.7
20260505180941 58 294 2.0 7.0 0.00 0.15 0.05 76 1015.4
20260505175930 58 288 4.0 9.0 0.00 0.15 0.05 76 1015.3
20260505174931 57 288 5.0 10.0 0.00 0.15 0.05 76 1015.3
20260505173932 58 288 6.0 10.0 0.00 0.15 0.05 76 1015.2
20260505172931 57 291 4.0 8.0 0.00 0.15 0.05 76 1015.2
20260505171929 57 290 5.0 9.0 0.00 0.15 0.05 77 1015.2
20260505170931 57 292 5.0 10.0 0.00 0.15 0.05 76 1015.2
20260505165926 57 289 7.0 12.0 0.00 0.15 0.05 77 1015.2
20260505164932 57 282 5.0 12.0 0.00 0.15 0.05 77 1015.2
20260505163934 57 289 4.0 9.0 0.00 0.15 0.05 77 1015.2
20260505162935 56 294 6.0 9.0 0.00 0.15 0.05 77 1015.1
20260505161932 56 290 2.0 7.0 0.00 0.15 0.05 78 1015.1
20260505160935 56 296 4.0 7.0 0.00 0.15 0.05 78 1014.9
20260505152942 55 284 7.0 12.0 0.00 0.15 0.05 80 1014.7
20260505151926 55 294 5.0 9.0 0.00 0.15 0.05 79 1014.7
20260505150929 56 287 6.0 12.0 0.00 0.15 0.05 78 1014.5
20260505124937 55 269 4.0 10.0 0.00 0.15 0.05 77 1014.0
20260505123935 55 272 1.0 5.0 0.00 0.15 0.05 77 1014.2
20260505122937 55 272 0.0 5.0 0.00 0.15 0.05 77 1014.1
20260505121938 55 272 0.0 7.0 0.00 0.15 0.05 77 1014.1
20260505121005 55 271 4.0 8.0 0.00 0.15 0.05 77 1014.1
20260505115934 55 267 6.0 8.0 0.00 0.15 0.05 77 1013.8